Location: Cartignies
(50.0929°N, 3.8447°E)
Time: 13:45:31
(UTC+00:00)

Cosmos 2219 Rocket - Pass Details

Date: 12 January 2026
Orbit: 828 x 844 km, 71.0° (Epoch: 15 February)

Event Time Altitude Azimuth Distance (km) Brightness Sun altitude
Rises 17:01:00 0° 282° (WNW) 3,401 6.3 -8.5°
Reaches altitude 10° 17:05:07 10° 311° (NW) 2,466 5.0 -9.1°
Maximum altitude 17:07:29 13° 336° (NNW) 2,288 4.5 -9.4°
Drops below altitude 10° 17:09:50 10° 1° (N) 2,465 4.4 -9.8°
Enters shadow 17:12:58 - 24° (NNE) 3,127 4.7 -10.3°
